Time,TemperatureF,DewpointF,PressureIn,WindDirection,WindDirectionDegrees,WindSpeedMPH,WindSpeedGustMPH,Humidity,HourlyPrecipIn,Conditions,Clouds,dailyrainin,SoftwareType,DateUTC
2013-08-02 00:02:00,48.0,32.0,-100.00,North,-999,-999.0,-999.0,53,-99.99,,,-99.99,,2013-08-02 07:02:00,
2013-08-02 00:12:00,48.0,32.0,-100.00,North,-999,-999.0,-999.0,53,-99.99,,,-99.99,,2013-08-02 07:12:00,
2013-08-02 00:44:00,45.0,32.0,-100.00,North,-999,-999.0,-999.0,58,-99.99,,,-99.99,,2013-08-02 07:44:00,
2013-08-02 00:53:00,45.0,32.0,-100.00,North,-999,-999.0,-999.0,58,-99.99,,,-99.99,,2013-08-02 07:53:00,
2013-08-02 01:02:00,44.0,31.0,-100.00,North,-999,-999.0,-999.0,59,-99.99,,,-99.99,,2013-08-02 08:02:00,
2013-08-02 01:12:00,43.0,35.0,-100.00,North,-999,-999.0,-999.0,74,-99.99,,,-99.99,,2013-08-02 08:12:00,
2013-08-02 01:22:00,43.0,35.0,-100.00,North,-999,-999.0,-999.0,74,-99.99,,,-99.99,,2013-08-02 08:22:00,
2013-08-02 01:43:00,42.0,32.0,-100.00,North,-999,-999.0,-999.0,67,-99.99,,,-99.99,,2013-08-02 08:43:00,
2013-08-02 01:53:00,42.0,32.0,-100.00,North,-999,-999.0,-999.0,67,-99.99,,,-99.99,,2013-08-02 08:53:00,
2013-08-02 02:02:00,42.0,30.0,-100.00,SSW,210,0.0,-999.0,62,-99.99,,,-99.99,,2013-08-02 09:02:00,
2013-08-02 02:22:00,42.0,30.0,-100.00,North,-999,-999.0,-999.0,62,-99.99,,,-99.99,,2013-08-02 09:22:00,
2013-08-02 02:33:00,42.0,30.0,-100.00,North,-999,-999.0,-999.0,62,-99.99,,,-99.99,,2013-08-02 09:33:00,
2013-08-02 02:44:00,42.0,-99.9,-100.00,North,-999,-999.0,-999.0,-999,-99.99,,,-99.99,,2013-08-02 09:44:00,
2013-08-02 02:53:00,42.0,31.0,-100.00,North,-999,-999.0,-999.0,69,-99.99,,,-99.99,,2013-08-02 09:53:00,
2013-08-02 03:02:00,40.0,31.0,-100.00,North,-999,-999.0,-999.0,69,-99.99,,,-99.99,,2013-08-02 10:02:00,
2013-08-02 03:23:00,40.0,31.0,-100.00,North,-999,-999.0,-999.0,69,-99.99,,,-99.99,,2013-08-02 10:23:00,
2013-08-02 03:33:00,40.0,31.0,-100.00,North,-999,-999.0,-999.0,69,-99.99,,,-99.99,,2013-08-02 10:33:00,
2013-08-02 03:43:00,40.0,31.0,-100.00,North,-999,-999.0,-999.0,69,-99.99,,,-99.99,,2013-08-02 10:43:00,
2013-08-02 04:02:00,41.0,30.0,-100.00,North,-999,-999.0,-999.0,64,-99.99,,,-99.99,,2013-08-02 11:02:00,
2013-08-02 04:12:00,41.0,30.0,-100.00,North,-999,-999.0,-999.0,64,-99.99,,,-99.99,,2013-08-02 11:12:00,
2013-08-02 04:22:00,41.0,30.0,-100.00,North,-999,-999.0,-999.0,64,-99.99,,,-99.99,,2013-08-02 11:22:00,
2013-08-02 04:32:00,39.0,27.0,-100.00,North,-999,-999.0,-999.0,62,-99.99,,,-99.99,,2013-08-02 11:32:00,
2013-08-02 04:42:00,39.0,27.0,-100.00,North,-999,-999.0,-999.0,62,-99.99,,,-99.99,,2013-08-02 11:42:00,
2013-08-02 04:52:00,39.0,27.0,-100.00,North,-999,-999.0,-999.0,62,-99.99,,,-99.99,,2013-08-02 11:52:00,
2013-08-02 05:11:00,38.0,26.0,-100.00,North,-999,-999.0,-999.0,60,-99.99,,,-99.99,,2013-08-02 12:11:00,
2013-08-02 05:22:00,38.0,26.0,-100.00,North,-999,-999.0,-999.0,60,-99.99,,,-99.99,,2013-08-02 12:22:00,
2013-08-02 05:42:00,38.0,29.0,-100.00,North,-999,-999.0,-999.0,68,-99.99,,,-99.99,,2013-08-02 12:42:00,
2013-08-02 06:02:00,38.0,28.0,-100.00,North,-999,-999.0,-999.0,66,-99.99,,,-99.99,,2013-08-02 13:02:00,
2013-08-02 06:11:00,38.0,28.0,-100.00,North,-999,-999.0,-999.0,66,-99.99,,,-99.99,,2013-08-02 13:11:00,
2013-08-02 06:22:00,38.0,28.0,-100.00,North,-999,-999.0,-999.0,66,-99.99,,,-99.99,,2013-08-02 13:22:00,
2013-08-02 06:42:00,38.0,28.0,-100.00,North,-999,-999.0,-999.0,67,-99.99,,,-99.99,,2013-08-02 13:42:00,
2013-08-02 06:52:00,37.0,30.0,-100.00,North,-999,-999.0,-999.0,76,-99.99,,,-99.99,,2013-08-02 13:52:00,
2013-08-02 07:12:00,38.0,34.0,-100.00,North,-999,-999.0,-999.0,84,-99.99,,,-99.99,,2013-08-02 14:12:00,
2013-08-02 07:22:00,38.0,34.0,-100.00,North,-999,-999.0,-999.0,84,-99.99,,,-99.99,,2013-08-02 14:22:00,
2013-08-02 07:43:00,39.0,31.0,-100.00,North,-999,-999.0,-999.0,72,-99.99,,,-99.99,,2013-08-02 14:43:00,
2013-08-02 07:52:00,39.0,31.0,-100.00,North,-999,-999.0,-999.0,72,-99.99,,,-99.99,,2013-08-02 14:52:00,
2013-08-02 08:03:00,41.0,31.0,-100.00,North,-999,-999.0,-999.0,67,-99.99,,,-99.99,,2013-08-02 15:03:00,
2013-08-02 08:12:00,41.0,31.0,-100.00,North,-999,-999.0,-999.0,67,-99.99,,,-99.99,,2013-08-02 15:12:00,
2013-08-02 08:22:00,41.0,31.0,-100.00,North,-999,-999.0,-999.0,67,-99.99,,,-99.99,,2013-08-02 15:22:00,
2013-08-02 08:52:00,47.0,36.0,-100.00,North,-999,-999.0,-999.0,65,-99.99,,,-99.99,,2013-08-02 15:52:00,
2013-08-02 09:22:00,53.0,35.0,-100.00,North,-999,-999.0,-999.0,50,-99.99,,,-99.99,,2013-08-02 16:22:00,
2013-08-02 09:32:00,53.0,35.0,-100.00,North,-999,-999.0,-999.0,50,-99.99,,,-99.99,,2013-08-02 16:32:00,
2013-08-02 10:43:00,-999.0,-99.9,-100.00,WNW,290,1.0,-999.0,-999,-99.99,,,-99.99,,2013-08-02 17:43:00,
2013-08-02 10:52:00,61.0,-99.9,-100.00,WNW,290,1.0,-999.0,57,-99.99,,,-99.99,,2013-08-02 17:52:00,
2013-08-02 12:03:00,-999.0,-99.9,-100.00,NW,310,1.0,-999.0,-999,-99.99,,,-99.99,,2013-08-02 19:03:00,
2013-08-02 12:33:00,-999.0,-99.9,-100.00,WNW,300,1.0,-999.0,-999,-99.99,,,-99.99,,2013-08-02 19:33:00,
2013-08-02 12:43:00,71.0,-99.9,-100.00,WNW,300,1.0,-999.0,-999,-99.99,,,-99.99,,2013-08-02 19:43:00,
2013-08-02 13:23:00,-999.0,-99.9,-100.00,WNW,290,2.0,-999.0,-999,-99.99,,,-99.99,,2013-08-02 20:23:00,
2013-08-02 14:43:00,74.0,-99.9,-100.00,North,360,2.0,-999.0,-999,-99.99,,,-99.99,,2013-08-02 21:43:00,
2013-08-02 15:22:00,-999.0,-99.9,-100.00,NNW,330,2.0,-999.0,-999,-99.99,,,-99.99,,2013-08-02 22:22:00,
2013-08-02 15:33:00,76.0,-99.9,-100.00,NNW,330,2.0,-999.0,21,-99.99,,,-99.99,,2013-08-02 22:33:00,
2013-08-02 17:43:00,-999.0,-99.9,-100.00,NW,320,2.0,-999.0,-999,-99.99,,,-99.99,,2013-08-03 00:43:00,
2013-08-02 17:52:00,73.0,-99.9,-100.00,NW,320,3.0,-999.0,41,-99.99,,,-99.99,,2013-08-03 00:52:00,
2013-08-02 18:12:00,-999.0,-99.9,-100.00,WNW,300,3.0,-999.0,-999,-99.99,,,-99.99,,2013-08-03 01:12:00,
2013-08-02 18:43:00,69.0,-99.9,-100.00,WNW,290,4.0,-999.0,-999,-99.99,,,-99.99,,2013-08-03 01:43:00,
2013-08-02 18:53:00,69.0,-99.9,-100.00,WNW,290,4.0,-999.0,51,-99.99,,,-99.99,,2013-08-03 01:53:00,
2013-08-02 19:02:00,-999.0,-99.9,-100.00,WNW,290,4.0,-999.0,-999,-99.99,,,-99.99,,2013-08-03 02:02:00,
2013-08-02 19:12:00,69.0,-99.9,-100.00,WNW,290,4.0,-999.0,45,-99.99,,,-99.99,,2013-08-03 02:12:00,
2013-08-02 20:02:00,-999.0,-99.9,-100.00,WNW,290,6.0,-999.0,-999,-99.99,,,-99.99,,2013-08-03 03:02:00,
2013-08-02 20:12:00,-999.0,-99.9,-100.00,WNW,290,2.0,-999.0,48,-99.99,,,-99.99,,2013-08-03 03:12:00,
2013-08-02 20:22:00,65.0,-99.9,-100.00,WNW,290,2.0,-999.0,-999,-99.99,,,-99.99,,2013-08-03 03:22:00,